TimeCDT,TemperatureF,Dew PointF,Humidity,Sea Level PressureIn,VisibilityMPH,Wind Direction,Wind SpeedMPH,Gust SpeedMPH,PrecipitationIn,Events,Conditions,WindDirDegrees,DateUTC
12:15 AM,50.0,35.6,58,30.06,10.0,Calm,Calm,-,N/A,,Clear,0,2013-07-24 05:15:00
12:35 AM,50.0,35.6,58,30.06,10.0,Calm,Calm,-,N/A,,Clear,0,2013-07-24 05:35:00
12:55 AM,48.2,33.8,58,30.06,10.0,Calm,Calm,-,N/A,,Clear,0,2013-07-24 05:55:00
1:15 AM,48.2,33.8,58,30.05,10.0,SSW,5.8,-,N/A,,Clear,200,2013-07-24 06:15:00
1:35 AM,50.0,33.8,54,30.05,10.0,SSW,5.8,-,N/A,,Clear,210,2013-07-24 06:35:00
1:55 AM,48.2,32.0,54,30.05,10.0,SSW,4.6,-,N/A,,Clear,210,2013-07-24 06:55:00
2:15 AM,50.0,33.8,54,30.05,10.0,South,3.5,-,N/A,,Clear,170,2013-07-24 07:15:00
2:35 AM,48.2,32.0,54,30.05,10.0,SSW,5.8,-,N/A,,Clear,210,2013-07-24 07:35:00
2:55 AM,48.2,32.0,54,30.05,10.0,SSW,5.8,-,N/A,,Clear,210,2013-07-24 07:55:00
3:15 AM,48.2,32.0,54,30.05,10.0,SW,6.9,-,N/A,,Clear,220,2013-07-24 08:15:00
3:35 AM,48.2,32.0,54,30.04,10.0,SW,5.8,-,N/A,,Clear,220,2013-07-24 08:35:00
3:55 AM,48.2,32.0,54,30.04,10.0,SSW,5.8,-,N/A,,Mostly Cloudy,200,2013-07-24 08:55:00
4:15 AM,50.0,35.6,58,30.04,10.0,SSW,8.1,-,N/A,,Mostly Cloudy,200,2013-07-24 09:15:00
4:35 AM,50.0,35.6,58,30.04,10.0,SSW,6.9,-,N/A,,Overcast,210,2013-07-24 09:35:00
4:55 AM,50.0,35.6,58,30.03,10.0,SSW,6.9,-,N/A,,Scattered Clouds,210,2013-07-24 09:55:00
5:15 AM,50.0,35.6,58,30.03,10.0,SW,8.1,-,N/A,,Scattered Clouds,220,2013-07-24 10:15:00
5:35 AM,50.0,35.6,58,30.03,10.0,SW,6.9,-,N/A,,Partly Cloudy,220,2013-07-24 10:35:00
5:55 AM,50.0,35.6,58,30.03,10.0,SSW,6.9,-,N/A,,Scattered Clouds,210,2013-07-24 10:55:00
6:15 AM,50.0,35.6,58,30.03,10.0,SSW,5.8,-,N/A,,Mostly Cloudy,210,2013-07-24 11:15:00
6:35 AM,50.0,35.6,58,30.03,10.0,SSW,5.8,-,N/A,,Mostly Cloudy,210,2013-07-24 11:35:00
6:55 AM,53.6,37.4,54,30.03,10.0,SW,5.8,-,N/A,,Overcast,220,2013-07-24 11:55:00
7:15 AM,53.6,39.2,58,30.03,10.0,SSW,6.9,-,N/A,,Mostly Cloudy,210,2013-07-24 12:15:00
7:35 AM,55.4,41.0,58,30.03,10.0,SW,8.1,-,N/A,,Scattered Clouds,220,2013-07-24 12:35:00
7:55 AM,59.0,44.6,59,30.03,10.0,SW,10.4,-,N/A,,Mostly Cloudy,220,2013-07-24 12:55:00
8:15 AM,57.2,42.8,59,30.02,10.0,SW,8.1,-,N/A,,Overcast,220,2013-07-24 13:15:00
8:35 AM,57.2,41.0,55,30.02,10.0,SSW,8.1,-,N/A,,Mostly Cloudy,210,2013-07-24 13:35:00
8:55 AM,59.0,44.6,59,30.01,10.0,SW,10.4,-,N/A,,Mostly Cloudy,220,2013-07-24 13:55:00
9:15 AM,62.6,46.4,55,30.01,10.0,SW,13.8,-,N/A,,Scattered Clouds,220,2013-07-24 14:15:00
9:35 AM,66.2,48.2,52,30.00,10.0,SW,11.5,-,N/A,,Clear,230,2013-07-24 14:35:00
9:55 AM,66.2,50.0,56,30.00,10.0,SW,15.0,-,N/A,,Clear,230,2013-07-24 14:55:00
10:15 AM,68.0,50.0,52,30.00,10.0,WSW,16.1,-,N/A,,Clear,240,2013-07-24 15:15:00
10:35 AM,68.0,53.6,60,29.99,10.0,WSW,12.7,17.3,N/A,,Clear,240,2013-07-24 15:35:00
11:15 AM,71.6,53.6,53,29.98,10.0,WSW,17.3,21.9,N/A,,Clear,250,2013-07-24 16:15:00
11:35 AM,71.6,55.4,57,29.98,10.0,West,12.7,23.0,N/A,,Clear,260,2013-07-24 16:35:00
11:55 AM,71.6,55.4,57,29.98,10.0,West,15.0,20.7,N/A,,Partly Cloudy,270,2013-07-24 16:55:00
12:15 PM,71.6,55.4,57,29.97,10.0,West,16.1,19.6,N/A,,Partly Cloudy,280,2013-07-24 17:15:00
12:35 PM,71.6,55.4,57,29.97,10.0,WNW,18.4,21.9,N/A,,Partly Cloudy,290,2013-07-24 17:35:00
12:55 PM,73.4,55.4,53,29.97,10.0,West,13.8,18.4,N/A,,Scattered Clouds,280,2013-07-24 17:55:00
1:15 PM,75.2,57.2,53,29.96,10.0,West,18.4,26.5,N/A,,Scattered Clouds,280,2013-07-24 18:15:00
1:35 PM,75.2,57.2,53,29.95,10.0,NW,12.7,24.2,N/A,,Partly Cloudy,310,2013-07-24 18:35:00
1:55 PM,73.4,57.2,57,29.95,10.0,WNW,13.8,21.9,N/A,,Scattered Clouds,290,2013-07-24 18:55:00
2:15 PM,75.2,57.2,53,29.95,10.0,WNW,17.3,24.2,N/A,,Partly Cloudy,300,2013-07-24 19:15:00
2:35 PM,75.2,57.2,53,29.95,10.0,WNW,19.6,-,N/A,,Partly Cloudy,300,2013-07-24 19:35:00
2:55 PM,75.2,59.0,57,29.95,10.0,WNW,17.3,25.3,N/A,,Scattered Clouds,300,2013-07-24 19:55:00
3:15 PM,75.2,59.0,57,29.95,10.0,WNW,17.3,21.9,N/A,,Scattered Clouds,300,2013-07-24 20:15:00
3:35 PM,75.2,57.2,53,29.95,10.0,West,15.0,24.2,N/A,,Mostly Cloudy,280,2013-07-24 20:35:00
3:55 PM,75.2,59.0,57,29.94,10.0,WNW,19.6,26.5,N/A,,Mostly Cloudy,290,2013-07-24 20:55:00
4:15 PM,75.2,57.2,53,29.94,10.0,WNW,20.7,25.3,N/A,,Partly Cloudy,300,2013-07-24 21:15:00
4:35 PM,75.2,57.2,53,29.94,10.0,NW,19.6,25.3,N/A,,Clear,310,2013-07-24 21:35:00
4:55 PM,73.4,57.2,57,29.94,10.0,NW,18.4,26.5,N/A,,Partly Cloudy,320,2013-07-24 21:55:00
5:15 PM,73.4,57.2,57,29.94,10.0,WNW,17.3,24.2,N/A,,Partly Cloudy,300,2013-07-24 22:15:00
5:35 PM,75.2,57.2,53,29.94,10.0,NW,18.4,26.5,N/A,,Partly Cloudy,310,2013-07-24 22:35:00
5:55 PM,73.4,57.2,57,29.94,10.0,NW,17.3,23.0,N/A,,Partly Cloudy,310,2013-07-24 22:55:00
6:15 PM,73.4,57.2,57,29.94,10.0,NW,16.1,20.7,N/A,,Clear,320,2013-07-24 23:15:00
6:35 PM,73.4,55.4,53,29.94,10.0,NW,16.1,-,N/A,,Clear,320,2013-07-24 23:35:00
6:55 PM,71.6,55.4,57,29.94,10.0,NW,15.0,18.4,N/A,,Clear,320,2013-07-24 23:55:00
7:15 PM,73.4,55.4,53,29.94,10.0,NW,15.0,19.6,N/A,,Scattered Clouds,320,2013-07-25 00:15:00
7:35 PM,71.6,53.6,53,29.95,10.0,NNE,15.0,18.4,N/A,,Mostly Cloudy,20,2013-07-25 00:35:00
7:55 PM,68.0,50.0,52,29.95,10.0,NNE,11.5,-,N/A,,Mostly Cloudy,20,2013-07-25 00:55:00
8:15 PM,66.2,50.0,56,29.96,10.0,North,8.1,-,N/A,,Mostly Cloudy,10,2013-07-25 01:15:00
8:35 PM,66.2,50.0,56,29.96,10.0,North,4.6,-,N/A,,Mostly Cloudy,10,2013-07-25 01:35:00
8:55 PM,64.4,48.2,56,29.96,10.0,NNE,4.6,-,N/A,,Scattered Clouds,20,2013-07-25 01:55:00
9:15 PM,64.4,48.2,56,29.96,10.0,Calm,Calm,-,N/A,,Partly Cloudy,0,2013-07-25 02:15:00
9:35 PM,62.6,46.4,55,29.96,10.0,Calm,Calm,-,N/A,,Clear,0,2013-07-25 02:35:00
9:55 PM,59.0,42.8,55,29.97,10.0,Calm,Calm,-,N/A,,Clear,0,2013-07-25 02:55:00
10:15 PM,57.2,42.8,59,29.98,10.0,North,3.5,-,N/A,,Clear,360,2013-07-25 03:15:00
10:35 PM,59.0,42.8,55,29.98,10.0,North,4.6,-,N/A,,Clear,10,2013-07-25 03:35:00
10:55 PM,57.2,41.0,55,29.97,10.0,NNE,3.5,-,N/A,,Clear,20,2013-07-25 03:55:00
11:15 PM,53.6,39.2,58,29.97,10.0,Calm,Calm,-,N/A,,Clear,0,2013-07-25 04:15:00
11:35 PM,53.6,37.4,54,29.97,10.0,Calm,Calm,-,N/A,,Clear,0,2013-07-25 04:35:00
11:55 PM,51.8,37.4,58,29.97,10.0,West,3.5,-,N/A,,Clear,260,2013-07-25 04:55:00